{"data":{"norad_id":49104,"epoch":"2026-05-25T02:08:08.244384Z","epoch_age_seconds":60667,"freshness":"FRESH","line1":"1 49104U 21075AF  26145.08898431  .00000054  00000+0  10475-3 0  9990","line2":"2 49104  87.9169 340.0540 0002087  90.2277 269.9094 13.18685471234125","mean_motion":13.18685471,"eccentricity":0.0002087,"inclination_deg":87.9169,"raan_deg":340.054,"arg_perigee_deg":90.2277,"mean_anomaly_deg":269.9094,"bstar":0.00010475,"rev_number":23412,"period_min":109.19965614757,"perigee_km":1188.165733801,"apogee_km":1191.3245678108,"semimajor_km":7567.8821508059,"source":"CELESTRAK","updated_at":"2026-05-25T13:38:22.487151Z"}}